Content
SEND FEEDBACK

Daily
Averages
Monthly
Summary
United States of America

INARAJAN, GUAM


Home > North America > United States > Guam
Elevation: 85 meters     Latitude: 13 18N     Longitude: 144 44E

WEATHER
 
SELECT A DAY
Number of Records: 356,611;   Date Range: 1/1/95 - 12/19/14
 
SHARE

PRINT THIS DATA

[ ← Previous Day ]
WEATHER ALMANAC - 15 MARCH, 2013
[ Next Day → ]
[ °F ]   °C
Weather ElementAverageHighLow
Temperature26.1 °C29 °C (1:27 pm)23.8 °C (1:55 am)
Dewpoint21.8 °C23 °C (5:12 pm)20.7 °C (3:55 am)
Humidity77.5 %89 % (3:03 am)62 % (1:27 pm)
Barometer1011.9 hPa1013.9 hPa (10:55 pm)1010.2 hPa (3:40 pm)
Wind Speed18.3 km/h25.9 km/h (5:27 pm)
Wind Gust27.8 km/h (1:27 pm)
Weather ElementAverage
Visibility16.1 km
Wind DirectionNE (47.2 °)

Weather ElementTotal
Precipitation---
Cooling Degree Days8.1 (Base 18.3)
Growing Degree Days16.4 (Base 10)
Averaged from 65 records on 15 March, 2013
WEATHER CONDITIONS BREAKOUT
WIND DIRECTION BREAKOUT
WEATHER BY HOUR - 15 MARCH, 2013
[ °F ]   °C
Local TimeTemperatureDewpointHumidityBarometerVisibilityWind DirectionWind SpeedGust SpeedPrecipitationEventsConditions
1:55 AM23.8 °C21.1 °C85 %1011.5 hPa16.1 kmENE (60°)13 km/hClear
2:55 AM23.9 °C21.3 °C85 %1011.2 hPa16.1 kmNE (50°)9.3 km/h0 mmLight Drizzle
3:03 AM24 °C22 °C89 %1010.8 hPa16.1 kmENE (60°)11.1 km/hLight Drizzle
3:04 AM24 °C22 °C89 %1010.8 hPa16.1 kmENE (60°)11.1 km/hLight Drizzle
3:06 AM24 °C22 °C89 %1010.8 hPa16.1 kmENE (60°)11.1 km/hMostly Cloudy
3:09 AM24 °C22 °C89 %1010.8 hPa16.1 kmENE (60°)11.1 km/hMostly Cloudy
3:11 AM24 °C21 °C83 %1010.8 hPa16.1 kmENE (60°)13 km/hMostly Cloudy
3:55 AM23.9 °C20.7 °C82 %1010.5 hPa16.1 kmENE (60°)16.7 km/hClear
4:50 AM24 °C21 °C83 %1010.5 hPa16.1 kmNE (40°)16.7 km/hMostly Cloudy
4:54 AM24 °C21 °C83 %1010.5 hPa16.1 kmNE (40°)16.7 km/hScattered Clouds
4:55 AM24.5 °C21.3 °C82 %1010.5 hPa16.1 kmNE (40°)16.7 km/hScattered Clouds
5:04 AM25 °C22 °C83 %1010.5 hPa16.1 kmNE (50°)14.8 km/hMostly Cloudy
5:16 AM24 °C21 °C83 %1010.5 hPa16.1 kmNE (50°)14.8 km/hMostly Cloudy
5:55 AM24.1 °C20.9 °C82 %1011.2 hPa16.1 kmENE (70°)16.7 km/hMostly Cloudy
6:55 AM24.6 °C21.5 °C83 %1011.9 hPa16.1 kmENE (60°)16.7 km/hScattered Clouds
7:55 AM25.8 °C21.7 °C78 %1012.5 hPa16.1 kmENE (70°)13 km/hScattered Clouds
8:55 AM26.2 °C21.3 °C74 %1012.9 hPa16.1 kmEast (80°)14.8 km/hPartly Cloudy
9:55 AM27.3 °C22.1 °C73 %1013.2 hPa16.1 kmENE (60°)16.7 km/hPartly Cloudy
10:17 AM27 °C22 °C74 %1013.2 hPa16.1 kmENE (70°)14.8 km/hMostly Cloudy
10:32 AM27 °C22 °C74 %1012.9 hPa16.1 kmNE (50°)16.7 km/hScattered Clouds
10:39 AM27 °C22 °C74 %1012.9 hPa16.1 kmEast (90°)16.7 km/hMostly Cloudy
10:42 AM28 °C22 °C70 %1012.9 hPa16.1 kmNE (50°)13 km/hScattered Clouds
10:55 AM28 °C22.1 °C70 %1012.9 hPa16.1 kmEast (80°)13 km/hScattered Clouds
11:32 AM28 °C22 °C70 %1012.5 hPa16.1 kmENE (70°)16.7 km/hMostly Cloudy
11:39 AM28 °C22 °C70 %1012.2 hPa16.1 kmEast (80°)16.7 km/hScattered Clouds
11:55 AM28.2 °C21.9 °C68 %1011.9 hPa16.1 kmEast (80°)11.1 km/hPartly Cloudy
12:55 PM28.5 °C21.6 °C66 %1011.2 hPa16.1 kmENE (70°)14.8 km/hScattered Clouds
1:27 PM29 °C21 °C62 %1010.8 hPa16.1 kmNNE (30°)16.7 km/h27.8 km/hMostly Cloudy
1:47 PM28 °C21 °C66 %1010.5 hPa16.1 kmNNE (20°)16.7 km/hMostly Cloudy
1:55 PM28.4 °C21.7 °C67 %1010.5 hPa16.1 kmNE (40°)16.7 km/hScattered Clouds
2:53 PM28 °C22 °C70 %1010.5 hPa16.1 kmNorth (10°)18.5 km/hMostly Cloudy
2:54 PM28 °C22 °C70 %1010.5 hPa16.1 kmNorth (10°)18.5 km/hMostly Cloudy
2:55 PM28.3 °C22.2 °C69 %1010.5 hPa16.1 kmNNE (20°)16.7 km/hMostly Cloudy
2:57 PM28 °C22 °C70 %1010.5 hPa16.1 kmNNE (20°)16.7 km/hMostly Cloudy
3:03 PM28 °C22 °C70 %1010.5 hPa16.1 kmNNE (20°)18.5 km/hMostly Cloudy
3:12 PM28 °C22 °C70 %1010.5 hPa16.1 kmNE (40°)20.4 km/hMostly Cloudy
3:13 PM28 °C22 °C70 %1010.5 hPa16.1 kmNE (40°)18.5 km/hMostly Cloudy
3:29 PM28 °C22 °C70 %1010.5 hPa16.1 kmNNE (20°)20.4 km/hMostly Cloudy
3:38 PM28 °C22 °C70 %1010.5 hPa16.1 kmNNE (30°)18.5 km/hMostly Cloudy
3:40 PM28 °C22 °C70 %1010.2 hPa16.1 kmNE (40°)16.7 km/hScattered Clouds
3:55 PM27.5 °C21.9 °C71 %1010.2 hPa16.1 kmNNE (30°)18.5 km/hScattered Clouds
4:50 PM28 °C22 °C70 %1010.5 hPa16.1 kmNNE (20°)22.2 km/hMostly Cloudy
4:55 PM27.8 °C22.1 °C71 %1010.5 hPa16.1 kmNNE (20°)18.5 km/hMostly Cloudy
4:57 PM28 °C22 °C70 %1010.5 hPa16.1 kmNNE (20°)22.2 km/hMostly Cloudy
5:12 PM27 °C23 °C79 %1010.5 hPa16.1 kmNNE (30°)20.4 km/hMostly Cloudy
5:27 PM26 °C23 °C83 %1010.8 hPa16.1 kmNE (40°)25.9 km/hMostly Cloudy
5:55 PM25.9 °C22.6 °C82 %1011.2 hPa16.1 kmNNE (30°)24.1 km/hOvercast
6:55 PM25.3 °C22.3 °C83 %1011.9 hPa16.1 kmNE (40°)22.2 km/hOvercast
7:15 PM25 °C22 °C83 %1011.9 hPa16.1 kmNE (40°)24.1 km/hMostly Cloudy
7:29 PM25 °C22 °C83 %1011.9 hPa16.1 kmNNE (30°)22.2 km/hScattered Clouds
7:55 PM25.1 °C22.1 °C83 %1012.2 hPa16.1 kmNE (40°)24.1 km/hScattered Clouds
8:49 PM25 °C22 °C83 %1012.9 hPa16.1 kmNE (40°)24.1 km/hMostly Cloudy
8:55 PM25 °C22 °C83 %1012.9 hPa16.1 kmEast (90°)24.1 km/hMostly Cloudy
8:57 PM25 °C22 °C83 %1012.9 hPa16.1 kmNE (40°)24.1 km/hMostly Cloudy
9:06 PM25 °C22 °C83 %1013.2 hPa16.1 kmNE (40°)24.1 km/hMostly Cloudy
9:08 PM25 °C22 °C83 %1013.2 hPa16.1 kmNE (40°)24.1 km/hScattered Clouds
9:50 PM25 °C22 °C83 %1013.5 hPa16.1 kmNE (40°)22.2 km/hMostly Cloudy
9:52 PM25 °C22 °C83 %1013.5 hPa16.1 kmNE (40°)25.9 km/hScattered Clouds
9:55 PM25.3 °C21.9 °C81 %1013.5 hPa16.1 kmNE (40°)24.1 km/hScattered Clouds
10:55 PM25.3 °C21.7 °C80 %1013.9 hPa16.1 kmENE (60°)20.4 km/hMostly Cloudy
11:11 PM25 °C22 °C83 %1013.9 hPa16.1 kmENE (60°)22.2 km/hMostly Cloudy
11:13 PM25 °C22 °C83 %1013.9 hPa16.1 kmENE (60°)22.2 km/hMostly Cloudy
11:26 PM25 °C22 °C83 %1013.9 hPa16.1 kmENE (60°)22.2 km/hMostly Cloudy
11:30 PM25 °C22 °C83 %1013.9 hPa16.1 kmENE (60°)20.4 km/hScattered Clouds
11:55 PM25.1 °C21.6 °C81 %1013.5 hPa16.1 kmNE (50°)24.1 km/hPartly Cloudy
Hourly data recorded from PGUA, located 0 kilometers away from Inarajan, Guam







STORIES FROM OUR PARTNERS